Minchumina, AK

5:46 PM AKDT on April 27, 2017 (GMT -0800)
Minchumina

Weather History for PAMH - July, 2014

Change the Weather History Date:

Friday, July 4, 2014

  Actual Average Record
Temperature  
Mean Temperature 66 °F -  
Max Temperature 78 °F 66 °F 78 °F (1999)
Min Temperature 53 °F 50 °F 39 °F (2002)
Growing Degree Days 16 (Base 50)    
Moisture  
Dew Point 46 °F    
Average Humidity 48    
Maximum Humidity 77    
Minimum Humidity 29    
Precipitation  
Precipitation 0.00 in - - ()
Sea Level Pressure  
Sea Level Pressure 29.83 in    
Wind  
Wind Speed 1 mph (East)    
Max Wind Speed 7 mph    
Max Gust Speed -    
Visibility 10 miles    
Events      
Averages and records for this station are not official NWS values.
T = Trace of Precipitation, MM = Missing Value Source: NWS Daily Summary

Daily Weather History Graph

Daily Weather History Graph

Search for Another Location

Airport or City:

Trip Planner

Search our weather history database for the weather conditions in past years. The results will help you decide how hot, cold, wet, or windy it might be!

Date:

Astronomy

Jul. 04, 2014 Rise Set
Actual Time 3:59 AM AKDT 12:26 AM AKDT
Civil Twilight Sun does not set Sun does not set
Nautical Twilight Sun does not set Sun does not set
Astronomical Twilight Sun does not set Sun does not set
Moon 2:12 PM AKDT (7/4) 12:59 AM AKDT (7/4)
Length of Visible Light 24h 00m
Length of Day
20h 26m
Waxing Crescent, 43% of the Moon is Illuminated
Jul 4
Waxing Crescent
Jul 5
First Quarter
Jul 12
Full
Jul 18
Last Quarter
Jul 26
New

Hourly Weather History & Observations

Time (AKDT) Temp. Dew Point Humidity Pressure Visibility Wind Dir Wind Speed Gust Speed Precip Events Conditions
12:16 AM 62.6 °F 44.6 °F 52% 29.84 in 10.0 mi Calm Calm - N/A   Clear
12:36 AM 60.8 °F 42.8 °F 52% 29.84 in 10.0 mi Calm Calm - N/A   Clear
12:56 AM - - N/A% - - North - - N/A   Unknown
1:16 AM - - N/A% 29.84 in - Calm Calm - N/A   Unknown
1:36 AM 60.8 °F 42.8 °F 52% 29.85 in 10.0 mi Calm Calm - N/A   Clear
1:56 AM 60.8 °F 42.8 °F 52% 29.85 in 10.0 mi Calm Calm - N/A   Clear
2:16 AM 60.8 °F 42.8 °F 52% 29.85 in 10.0 mi Calm Calm - N/A   Clear
2:36 AM 59.0 °F 42.8 °F 55% 29.85 in 10.0 mi Calm Calm - N/A   Clear
2:56 AM 59.0 °F 42.8 °F 55% 29.85 in 10.0 mi Calm Calm - N/A   Clear
3:16 AM 57.2 °F 42.8 °F 59% 29.85 in 10.0 mi Calm Calm - N/A   Clear
3:36 AM 57.2 °F 46.4 °F 67% 29.86 in 10.0 mi Calm Calm - N/A   Clear
3:56 AM 57.2 °F 44.6 °F 63% 29.86 in 10.0 mi Calm Calm - N/A   Clear
4:16 AM 57.2 °F 42.8 °F 59% 29.86 in 10.0 mi Calm Calm - N/A   Clear
4:36 AM 55.4 °F 44.6 °F 67% 29.86 in 10.0 mi Calm Calm - N/A   Clear
4:56 AM 55.4 °F 44.6 °F 67% 29.86 in 10.0 mi Calm Calm - N/A   Clear
5:16 AM 55.4 °F 44.6 °F 67% 29.86 in 10.0 mi Calm Calm - N/A   Clear
5:36 AM 53.6 °F 44.6 °F 72% 29.86 in 10.0 mi Calm Calm - N/A   Clear
5:56 AM 53.6 °F 46.4 °F 77% 29.86 in 10.0 mi Calm Calm - N/A   Clear
6:16 AM 53.6 °F 46.4 °F 77% 29.86 in 10.0 mi Calm Calm - N/A   Clear
6:36 AM 53.6 °F 46.4 °F 77% 29.86 in 10.0 mi Calm Calm - N/A   Clear
6:56 AM 55.4 °F 46.4 °F 72% 29.86 in 10.0 mi Calm Calm - N/A   Clear
7:16 AM 55.4 °F 46.4 °F 72% 29.86 in 10.0 mi Calm Calm - N/A   Clear
7:36 AM 57.2 °F 48.2 °F 72% 29.87 in 10.0 mi Calm Calm - N/A   Clear
7:56 AM 59.0 °F 48.2 °F 67% 29.86 in 10.0 mi Calm Calm - N/A   Clear
8:16 AM 60.8 °F 48.2 °F 63% 29.86 in 10.0 mi Calm Calm - N/A   Clear
8:36 AM 60.8 °F 48.2 °F 63% 29.86 in 10.0 mi Calm Calm - N/A   Clear
8:56 AM 62.6 °F 48.2 °F 59% 29.86 in 10.0 mi Calm Calm - N/A   Clear
9:16 AM 64.4 °F 48.2 °F 56% 29.86 in 10.0 mi Calm Calm - N/A   Clear
9:36 AM 66.2 °F 48.2 °F 52% 29.86 in 10.0 mi Calm Calm - N/A   Clear
9:56 AM 66.2 °F 48.2 °F 52% 29.86 in 10.0 mi Calm Calm - N/A   Clear
10:16 AM 68.0 °F 48.2 °F 49% 29.85 in 10.0 mi ESE 3.5 mph - N/A   Clear
10:36 AM 66.2 °F 48.2 °F 52% 29.86 in 10.0 mi Calm Calm - N/A   Clear
10:56 AM 69.8 °F 48.2 °F 46% 29.85 in 10.0 mi Calm Calm - N/A   Clear
11:16 AM 71.6 °F 48.2 °F 43% 29.85 in 10.0 mi ESE 4.6 mph - N/A   Clear
11:36 AM 71.6 °F 48.2 °F 43% 29.85 in 10.0 mi East 3.5 mph - N/A   Clear
11:56 AM 71.6 °F 48.2 °F 43% 29.85 in 10.0 mi Calm Calm - N/A   Clear
12:16 PM 73.4 °F 48.2 °F 41% 29.84 in 10.0 mi East 6.9 mph - N/A   Clear
12:36 PM 73.4 °F 46.4 °F 38% 29.84 in 10.0 mi East 4.6 mph - N/A   Clear
12:56 PM 73.4 °F 44.6 °F 36% 29.84 in 10.0 mi SE 5.8 mph - N/A   Clear
1:16 PM 75.2 °F 46.4 °F 36% 29.84 in 10.0 mi East 3.5 mph - N/A   Clear
1:36 PM 75.2 °F 46.4 °F 36% 29.84 in 10.0 mi East 4.6 mph - N/A   Clear
1:56 PM 75.2 °F 44.6 °F 34% 29.83 in 10.0 mi East 4.6 mph - N/A   Clear
2:16 PM 75.2 °F 44.6 °F 34% 29.83 in 10.0 mi East 4.6 mph - N/A   Clear
2:36 PM 77.0 °F 44.6 °F 32% 29.83 in 10.0 mi Calm Calm - N/A   Clear
2:56 PM 77.0 °F 44.6 °F 32% 29.83 in 5.0 mi Calm Calm - N/A   Clear
3:16 PM 75.2 °F 42.8 °F 31% 29.82 in 10.0 mi East 3.5 mph - N/A   Clear
3:36 PM 77.0 °F 44.6 °F 32% 29.82 in 8.0 mi Calm Calm - N/A   Clear
3:56 PM 78.8 °F 44.6 °F 30% 29.82 in 10.0 mi Calm Calm - N/A   Clear
4:16 PM 77.0 °F 42.8 °F 29% 29.82 in 10.0 mi East 4.6 mph - N/A   Clear
4:36 PM 77.0 °F 42.8 °F 29% 29.81 in 10.0 mi Calm Calm - N/A   Partly Cloudy
4:56 PM 78.8 °F 44.6 °F 30% 29.81 in 10.0 mi East 3.5 mph - N/A   Partly Cloudy
5:16 PM 78.8 °F 44.6 °F 30% 29.81 in 10.0 mi East 3.5 mph - N/A   Partly Cloudy
5:36 PM 77.0 °F 44.6 °F 32% 29.80 in 10.0 mi Calm Calm - N/A   Clear
5:56 PM 73.4 °F 46.4 °F 38% 29.80 in 10.0 mi Calm Calm - N/A   Scattered Clouds
6:16 PM 78.8 °F 46.4 °F 32% 29.80 in 9.0 mi Calm Calm - N/A   Mostly Cloudy
6:36 PM 77.0 °F 46.4 °F 34% 29.79 in 10.0 mi Calm Calm - N/A   Partly Cloudy
6:56 PM 78.8 °F 46.4 °F 32% 29.79 in 10.0 mi Calm Calm - N/A   Partly Cloudy
7:16 PM 75.2 °F 46.4 °F 36% 29.79 in 10.0 mi Calm Calm - N/A   Scattered Clouds
7:36 PM 75.2 °F 46.4 °F 36% 29.79 in 10.0 mi Calm Calm - N/A   Partly Cloudy
7:56 PM 75.2 °F 46.4 °F 36% 29.79 in 10.0 mi Calm Calm - N/A   Clear
8:16 PM 75.2 °F 48.2 °F 38% 29.79 in 10.0 mi Calm Calm - N/A   Clear
8:36 PM 73.4 °F 48.2 °F 41% 29.79 in 10.0 mi Calm Calm - N/A   Clear
8:56 PM 71.6 °F 48.2 °F 43% 29.79 in 10.0 mi Calm Calm - N/A   Clear
9:16 PM 69.8 °F 46.4 °F 43% 29.79 in 10.0 mi Calm Calm - N/A   Partly Cloudy
9:36 PM 69.8 °F 48.2 °F 46% 29.79 in 10.0 mi Calm Calm - N/A   Clear
9:56 PM 69.8 °F 48.2 °F 46% 29.80 in 10.0 mi Calm Calm - N/A   Clear
10:16 PM 68.0 °F 46.4 °F 46% 29.79 in 10.0 mi Calm Calm - N/A   Clear
10:36 PM 66.2 °F 46.4 °F 49% 29.79 in 10.0 mi Calm Calm - N/A   Clear
10:56 PM 66.2 °F 46.4 °F 49% 29.80 in 10.0 mi Calm Calm - N/A   Clear
11:16 PM 66.2 °F 46.4 °F 49% 29.80 in 10.0 mi Calm Calm - N/A   Clear
11:36 PM 64.4 °F 46.4 °F 52% 29.80 in 10.0 mi Calm Calm - N/A   Clear
11:56 PM 64.4 °F 44.6 °F 49% 29.80 in 10.0 mi Calm Calm - N/A   Clear